This is the latest recevied weather packets stored in our database for station/object KM4NDN. If no packets are shown the sender has not sent any weather packets the latest 10 day(s).
| Time | Temp. | Humidity | Pressure | Rain* | Wind** | Luminosity | Snow |
|---|---|---|---|---|---|---|---|
| 1778000622 | 16.11° C | 72% | 1006 hPa | 0 mm | - | 93 W/m² | - |
| 1778000317 | 16.11° C | 70% | 1006.2 hPa | 0 mm | - | 73 W/m² | - |
| 1778000013 | 16.11° C | 70% | 1006 hPa | 0 mm | - | 80 W/m² | - |
| 1777999708 | 16.11° C | 70% | 1006 hPa | 0 mm | - | 105 W/m² | - |
| 1777999405 | 16.11° C | 70% | 1005.9 hPa | 0 mm | - | 213 W/m² | - |
| 1777999104 | 16.11° C | 70% | 1006.3 hPa | 0 mm | - | 139 W/m² | - |
| 1777998802 | 16.67° C | 70% | 1005.8 hPa | 0 mm | - | 110 W/m² | - |
| 1777998500 | 16.67° C | 70% | 1006 hPa | 0 mm | - | 154 W/m² | - |
| 1777998196 | 16.67° C | 70% | 1006 hPa | 0 mm | - | 224 W/m² | - |
| 1777997893 | 16.11° C | 70% | 1005.9 hPa | 0 mm | - | 187 W/m² | - |
| 1777997591 | 16.11° C | 71% | 1006 hPa | 0 mm | - | 126 W/m² | - |
| 1777997288 | 16.11° C | 71% | 1006.2 hPa | 0 mm | - | 86 W/m² | - |
| 1777996986 | 16.67° C | 70% | 1006.2 hPa | 0 mm | - | 75 W/m² | - |
| 1777996682 | 16.67° C | 70% | 1006 hPa | 0 mm | - | 88 W/m² | - |
| 1777996377 | 16.67° C | 69% | 1006 hPa | 0 mm | - | 101 W/m² | - |
| 1777996074 | 16.67° C | 70% | 1006.2 hPa | 0 mm | - | 70 W/m² | - |
| 1777995771 | 16.67° C | 70% | 1006 hPa | 0 mm | - | 82 W/m² | - |
| 1777995467 | 16.67° C | 69% | 1005.9 hPa | 0 mm | - | 86 W/m² | - |
| 1777995164 | 16.67° C | 69% | 1005.9 hPa | 0 mm | - | 117 W/m² | - |
| 1777994862 | 16.67° C | 68% | 1006.2 hPa | 0 mm | - | 110 W/m² | - |
| 1777994558 | 17.22° C | 68% | 1005.8 hPa | 0 mm | - | 72 W/m² | - |
| 1777994258 | 17.22° C | 67% | 1005.6 hPa | 0 mm | - | 73 W/m² | - |
| 1777993955 | 17.78° C | 66% | 1005.5 hPa | 0 mm | - | 99 W/m² | - |
| 1777993652 | 17.78° C | 65% | 1005.4 hPa | 0 mm | - | 117 W/m² | - |
| 1777993349 | 18.33° C | 64% | 1005.1 hPa | 0 mm | - | 131 W/m² | - |
* Rain latest hour (hover to see other rain measurements)
** Current wind speed in m/s (hover to see current wind gust speed)